RH
33 34 33 29 27 28 33 36 39 40 43 43 42 44 47 45 45 45 40 39 37 31 30 31 32 36 36 36 38 37 35 33 34 36 34 34 36 37 38 39 40 45 51
38 35 33 30 26 23 27 30 36 38 41 47 43 39 41 41 41 39 38 36 36 36 34 30 31 31 31 33 36 37 37 35 33 32 31 31 33 34 34 35 37 40 44
43 40 37 33 29 25 21 25 31 35 37 40 38 37 36 37 38 36 35 31 32 34 36 36 34 32 32 33 35 36 37 38 36 34 32 31 30 30 30 33 29 34 36
51 44 42 38 33 29 25 20 24 28 32 35 39 37 36 37 36 33 31 30 26 27 29 33 35 34 34 35 36 35 34 34 35 34 31 29 27 27 30 27 24 30 35
61 50 44 43 42 37 33 29 21 22 26 30 33 37 36 34 34 34 30 28 28 25 25 26 30 36 37 34 34 34 34 34 32 32 30 29 26 24 24 26 28 32 35
60 59 51 44 46 44 38 35 33 27 21 24 27 29 30 33 30 28 29 27 25 23 24 24 24 25 28 32 33 31 33 34 32 31 30 28 26 24 22 25 29 31 37
63 66 65 52 45 45 44 42 38 34 32 27 21 23 25 26 27 25 26 27 25 23 21 22 24 24 23 25 27 27 26 27 29 31 30 27 26 23 24 25 29 32 38
64 65 67 63 55 46 45 43 41 39 36 34 31 26 22 20 21 22 21 24 26 23 23 23 22 23 23 23 23 24 25 25 23 23 23 24 25 22 22 28 32 34 45
65 67 66 67 66 59 51 41 39 39 40 36 33 33 30 25 20 19 19 19 20 19 18 22 23 22 22 24 24 22 20 18 19 19 19 20 20 20 23 30 34 44 49
68 65 64 69 69 65 61 57 44 38 40 40 35 31 31 29 26 23 22 20 20 19 17 17 20 22 21 24 25 25 22 17 18 19 19 19 19 22 27 35 44 51 53
69 65 66 66 70 71 69 68 61 48 42 40 41 36 30 27 27 26 26 26 22 20 18 16 14 16 21 21 23 26 22 21 20 20 22 19 21 24 31 39 46 54 54
57 64 65 67 68 70 71 74 68 59 48 42 41 43 35 30 26 25 25 28 29 27 22 19 17 16 17 20 23 22 23 25 25 21 21 19 23 27 34 42 48 53 52
48 56 66 67 69 68 70 71 64 58 48 46 43 40 39 36 31 27 25 26 29 30 28 25 22 20 21 21 22 22 23 25 25 23 20 21 27 31 35 42 50 55 52
45 47 60 61 66 68 71 73 69 58 47 45 42 40 41 42 37 34 31 29 27 26 23 22 21 22 23 24 24 24 24 25 26 27 24 26 30 32 33 42 52 55 55
47 45 44 56 62 66 71 75 71 63 52 47 45 51 52 47 46 52 54 44 35 29 27 28 26 25 24 24 24 25 26 29 29 30 30 30 31 32 36 45 55 53 55
45 43 39 44 58 61 63 72 69 64 60 55 56 55 55 55 58 63 65 58 57 52 44 36 30 32 32 30 30 29 28 32 31 33 35 34 33 35 39 52 59 56 53
54 45 40 47 54 65 64 61 66 64 64 62 60 61 63 59 58 63 70 75 69 66 50 38 38 39 35 35 35 39 37 34 34 34 36 35 33 34 42 54 54 57 58
51 50 45 47 45 41 46 51 54 60 63 65 64 63 62 67 67 67 73 80 82 67 59 44 38 39 38 40 41 41 39 40 40 38 34 35 36 43 51 53 58 62 70
50 56 47 45 43 44 44 53 56 65 64 58 59 57 59 62 66 69 74 77 82 74 65 54 48 46 43 42 38 38 39 38 38 46 46 46 48 57 57 52 56 60 67
49 54 53 43 43 41 46 52 56 59 59 59 59 55 57 62 64 63 67 67 75 74 71 58 55 50 46 47 46 47 51 51 55 60 62 66 64 62 62 62 65 68 71
43 43 45 44 43 40 37 44 45 44 52 60 61 62 60 64 67 69 71 68 68 73 68 68 66 62 49 44 45 51 59 66 69 75 78 80 72 71 73 77 77 81 83
39 43 43 46 50 44 41 44 40 37 44 48 57 63 65 66 65 67 72 71 67 72 68 66 69 76 68 64 65 66 72 76 78 79 82 79 75 77 78 77 80 84 89
32 36 44 49 49 50 43 37 32 31 36 40 43 50 60 66 68 69 70 73 73 75 74 71 76 77 84 85 83 85 91 84 82 84 80 78 80 78 78 77 82 90 86
39 36 38 52 56 53 40 36 36 33 38 42 44 48 52 58 63 69 68 73 79 83 83 82 80 82 84 94 93 84 86 89 87 83 82 83 80 79 84 80 77 75 72
47 44 45 47 51 49 48 46 42 41 46 45 48 50 50 51 60 69 77 76 79 81 86 87 87 86 88 89 89 95 92 88 86 84 84 85 86 87 86 82 79 74 72
56 54 53 53 58 55 55 55 48 48 50 53 57 57 58 61 62 59 70 75 81 83 85 89 91 90 95 92 87 89 88 93 94 90 87 85 85 88 86 83 80 77 71